| time (UTC) | temp C | wind direction | speed KPH | gust KPH | rain 1hr cm | rain 24hr cm | rain mn cm | humidity % | barometer mb |
| 20260508060047 | 5 | 0 | 0.0 | 0.0 | 0.00 | 0.03 | 0.00 | 65 | 1006.6 |
| 20260508054548 | 6 | 0 | 0.0 | 12.9 | 0.00 | 0.05 | 0.00 | 63 | 1006.7 |
| 20260508053047 | 6 | 0 | 1.6 | 4.8 | 0.00 | 0.05 | 0.00 | 62 | 1006.8 |
| 20260508051542 | 6 | 299 | 1.6 | 3.2 | 0.00 | 0.05 | 0.00 | 62 | 1006.9 |
| 20260508050050 | 6 | 0 | 0.0 | 6.4 | 0.00 | 0.05 | 0.00 | 59 | 1007.1 |
| 20260508044545 | 6 | 302 | 1.6 | 9.7 | 0.00 | 0.30 | 0.00 | 60 | 1007.1 |
| 20260508043046 | 7 | 0 | 0.0 | 8.0 | 0.00 | 0.30 | 0.00 | 59 | 1007.1 |
| 20260508041548 | 7 | 13 | 0.0 | 9.7 | 0.00 | 0.30 | 0.00 | 58 | 1007.1 |
| 20260508040046 | 6 | 352 | 0.0 | 8.0 | 0.00 | 0.30 | 0.00 | 58 | 1007.1 |
| 20260508034546 | 6 | 336 | 0.0 | 3.2 | 0.00 | 0.41 | 0.30 | 63 | 1007.2 |
| 20260508033041 | 7 | 0 | 0.0 | 3.2 | 0.00 | 0.41 | 0.30 | 58 | 1007.3 |
| 20260508031549 | 7 | 0 | 0.0 | 0.0 | 0.00 | 0.41 | 0.30 | 55 | 1007.2 |
| 20260508030047 | 7 | 0 | 1.6 | 8.0 | 0.00 | 0.41 | 0.30 | 57 | 1007.2 |
| 20260508024546 | 7 | 0 | 0.0 | 4.8 | 0.00 | 0.46 | 0.30 | 56 | 1006.9 |
| 20260508023046 | 6 | 272 | 1.6 | 9.7 | 0.00 | 0.46 | 0.30 | 58 | 1006.9 |
| 20260508021552 | 6 | 0 | 0.0 | 3.2 | 0.00 | 0.46 | 0.30 | 70 | 1006.9 |
| 20260508020041 | 6 | 0 | 0.0 | 0.0 | 0.00 | 0.46 | 0.30 | 67 | 1006.9 |
| 20260508014546 | 7 | 0 | 0.0 | 0.0 | 0.00 | 0.61 | 0.30 | 66 | 1006.9 |
| 20260508013046 | 8 | 338 | 0.0 | 3.2 | 0.00 | 0.61 | 0.30 | 62 | 1006.7 |
| 20260508011545 | 8 | 0 | 1.6 | 4.8 | 0.00 | 0.61 | 0.30 | 59 | 1006.6 |
| 20260508010044 | 9 | 0 | 0.0 | 4.8 | 0.00 | 0.61 | 0.30 | 59 | 1006.6 |
| 20260508004542 | 10 | 0 | 0.0 | 4.8 | 0.00 | 0.61 | 0.30 | 52 | 1006.4 |
| 20260508003046 | 11 | 0 | 3.2 | 8.0 | 0.00 | 0.61 | 0.30 | 50 | 1006.0 |
| 20260508001546 | 11 | 50 | 1.6 | 8.0 | 0.00 | 0.61 | 0.30 | 47 | 1005.9 |
| 20260508000045 | 11 | 319 | 0.0 | 9.7 | 0.00 | 0.61 | 0.30 | 44 | 1005.6 |
| 20260507234550 | 12 | 60 | 3.2 | 16.1 | 0.00 | 0.61 | 0.30 | 42 | 1005.4 |
| 20260507233041 | 12 | 340 | 1.6 | 12.9 | 0.00 | 0.61 | 0.30 | 43 | 1005.0 |
| 20260507231553 | 13 | 29 | 3.2 | 17.7 | 0.00 | 0.61 | 0.30 | 42 | 1004.8 |
| 20260507230051 | 13 | 340 | 4.8 | 16.1 | 0.00 | 0.61 | 0.30 | 41 | 1004.5 |
| 20260507224545 | 13 | 14 | 3.2 | 14.5 | 0.00 | 0.64 | 0.30 | 41 | 1004.2 |
| 20260507223044 | 14 | 302 | 3.2 | 16.1 | 0.00 | 0.64 | 0.30 | 41 | 1003.9 |
| 20260507221547 | 14 | 286 | 3.2 | 14.5 | 0.00 | 0.64 | 0.30 | 42 | 1003.8 |
| 20260507220046 | 14 | 232 | 6.4 | 14.5 | 0.00 | 0.64 | 0.30 | 42 | 1003.7 |
| 20260507214605 | 14 | 246 | 3.2 | 9.7 | 0.00 | 0.81 | 0.30 | 41 | 1003.8 |
| 20260507213053 | 15 | 34 | 4.8 | 14.5 | 0.00 | 0.81 | 0.30 | 38 | 1003.5 |
| 20260507211546 | 16 | 300 | 3.2 | 16.1 | 0.00 | 0.81 | 0.30 | 38 | 1003.6 |
| 20260507210053 | 16 | 134 | 4.8 | 11.3 | 0.00 | 0.81 | 0.30 | 38 | 1003.3 |
| 20260507204546 | 16 | 57 | 4.8 | 16.1 | 0.00 | 1.04 | 0.30 | 41 | 1003.2 |
| 20260507203052 | 17 | 331 | 8.0 | 22.5 | 0.00 | 1.04 | 0.30 | 40 | 1003.2 |
| 20260507201554 | 16 | 266 | 4.8 | 16.1 | 0.00 | 1.04 | 0.30 | 40 | 1003.1 |
| 20260507200044 | 16 | 286 | 4.8 | 25.7 | 0.00 | 1.04 | 0.30 | 44 | 1003.0 |
| 20260507194609 | 16 | 315 | 8.0 | 22.5 | 0.00 | 1.57 | 0.30 | 46 | 1003.2 |
| 20260507193049 | 17 | 90 | 1.6 | 19.3 | 0.00 | 1.57 | 0.30 | 48 | 1003.0 |
| 20260507191550 | 17 | 340 | 6.4 | 19.3 | 0.00 | 1.57 | 0.30 | 52 | 1003.1 |
| 20260507190046 | 17 | 324 | 3.2 | 19.3 | 0.00 | 1.57 | 0.30 | 52 | 1003.0 |
| 20260507184545 | 16 | 313 | 6.4 | 19.3 | 0.00 | 1.65 | 0.30 | 52 | 1003.0 |
| 20260507183040 | 17 | 279 | 3.2 | 11.3 | 0.00 | 1.65 | 0.30 | 47 | 1003.1 |
| 20260507181547 | 17 | 269 | 4.8 | 14.5 | 0.00 | 1.65 | 0.30 | 47 | 1003.2 |
| 20260507180046 | 17 | 342 | 1.6 | 12.9 | 0.00 | 1.65 | 0.30 | 57 | 1003.6 |
| 20260507174549 | 17 | 306 | 3.2 | 9.7 | 0.00 | 1.65 | 0.30 | 48 | 1003.6 |
| 20260507173044 | 17 | 327 | 1.6 | 8.0 | 0.00 | 1.65 | 0.30 | 49 | 1003.7 |
| 20260507171547 | 17 | 226 | 3.2 | 17.7 | 0.00 | 1.65 | 0.30 | 46 | 1003.8 |
| 20260507170047 | 18 | 340 | 1.6 | 12.9 | 0.00 | 1.65 | 0.30 | 53 | 1003.9 |
| 20260507164549 | 17 | 237 | 3.2 | 12.9 | 0.00 | 1.65 | 0.30 | 52 | 1003.9 |
| 20260507163050 | 17 | 267 | 1.6 | 14.5 | 0.00 | 1.65 | 0.30 | 50 | 1004.4 |
| 20260507161549 | 16 | 226 | 4.8 | 16.1 | 0.00 | 1.65 | 0.30 | 52 | 1004.4 |
| 20260507160044 | 17 | 246 | 3.2 | 12.9 | 0.00 | 1.65 | 0.30 | 55 | 1004.7 |
| 20260507154549 | 17 | 285 | 3.2 | 12.9 | 0.00 | 1.65 | 0.30 | 54 | 1004.8 |
| 20260507153045 | 16 | 286 | 4.8 | 14.5 | 0.00 | 1.65 | 0.30 | 58 | 1005.1 |
| 20260507151549 | 16 | 220 | 4.8 | 12.9 | 0.00 | 1.65 | 0.30 | 61 | 1005.1 |
| 20260507150056 | 17 | 349 | 4.8 | 12.9 | 0.00 | 1.65 | 0.30 | 59 | 1005.2 |
| 20260507144549 | 16 | 186 | 3.2 | 11.3 | 0.00 | 1.65 | 0.30 | 61 | 1005.4 |
| 20260507143046 | 16 | 229 | 4.8 | 11.3 | 0.00 | 1.65 | 0.30 | 62 | 1005.5 |
| 20260507141548 | 16 | 76 | 3.2 | 14.5 | 0.00 | 1.65 | 0.30 | 61 | 1005.6 |
| 20260507140054 | 15 | 263 | 3.2 | 11.3 | 0.00 | 1.65 | 0.30 | 63 | 1005.7 |
| 20260507134543 | 15 | 0 | 1.6 | 11.3 | 0.00 | 1.65 | 0.30 | 68 | 1005.9 |
| 20260507133047 | 14 | 246 | 3.2 | 8.0 | 0.00 | 1.65 | 0.30 | 68 | 1005.8 |
| 20260507131608 | 13 | 112 | 1.6 | 11.3 | 0.00 | 1.65 | 0.30 | 69 | 1005.8 |
| 20260507130046 | 13 | 349 | 1.6 | 12.9 | 0.00 | 1.65 | 0.30 | 70 | 1006.0 |
| 20260507124552 | 13 | 51 | 3.2 | 11.3 | 0.00 | 1.65 | 0.30 | 73 | 1006.2 |
| 20260507123044 | 13 | 352 | 1.6 | 12.9 | 0.00 | 1.65 | 0.30 | 74 | 1006.0 |
| 20260507121546 | 12 | 268 | 1.6 | 6.4 | 0.00 | 1.65 | 0.30 | 74 | 1006.2 |
| 20260507120046 | 11 | 0 | 0.0 | 4.8 | 0.00 | 1.65 | 0.30 | 77 | 1006.4 |
| 20260507114547 | 10 | 298 | 0.0 | 4.8 | 0.00 | 1.65 | 0.30 | 84 | 1006.5 |
| 20260507113048 | 8 | 275 | 1.6 | 6.4 | 0.00 | 1.65 | 0.30 | 90 | 1006.5 |
| 20260507111547 | 8 | 0 | 0.0 | 6.4 | 0.00 | 1.65 | 0.30 | 94 | 1006.5 |
| 20260507110047 | 7 | 0 | 0.0 | 0.0 | 0.00 | 1.65 | 0.30 | 98 | 1006.8 |
| 20260507104548 | 7 | 0 | 0.0 | 0.0 | 0.00 | 1.65 | 0.30 | 97 | 1006.8 |
| 20260507103045 | 7 | 0 | 0.0 | 0.0 | 0.00 | 1.65 | 0.30 | 96 | 1006.7 |
| 20260507101554 | 7 | 0 | 0.0 | 0.0 | 0.00 | 1.65 | 0.30 | 96 | 1006.6 |
| 20260507100045 | 7 | 0 | 0.0 | 0.0 | 0.00 | 1.65 | 0.30 | 96 | 1005.8 |
| 20260507094548 | 7 | 0 | 0.0 | 0.0 | 0.00 | 1.65 | 0.30 | 95 | 1005.4 |
| 20260507093052 | 7 | 0 | 0.0 | 0.0 | 0.00 | 1.65 | 0.30 | 96 | 1005.9 |
| 20260507091544 | 7 | 0 | 0.0 | 1.6 | 0.00 | 1.65 | 0.30 | 96 | 1005.9 |
| 20260507090041 | 7 | 0 | 1.6 | 3.2 | 0.00 | 1.65 | 0.30 | 96 | 1006.4 |
| 20260507084551 | 8 | 0 | 0.0 | 3.2 | 0.03 | 1.65 | 0.30 | 96 | 1006.0 |
| 20260507083046 | 8 | 321 | 0.0 | 4.8 | 0.03 | 1.65 | 0.30 | 95 | 1005.9 |
| 20260507081545 | 8 | 0 | 1.6 | 4.8 | 0.03 | 1.65 | 0.30 | 95 | 1005.7 |
| 20260507080045 | 8 | 9 | 1.6 | 9.7 | 0.03 | 1.65 | 0.30 | 96 | 1005.4 |
| 20260507074542 | 9 | 0 | 0.0 | 3.2 | 0.00 | 1.63 | 0.28 | 97 | 1005.6 |
| 20260507073048 | 9 | 0 | 0.0 | 3.2 | 0.00 | 1.63 | 0.28 | 97 | 1005.6 |
| 20260507071604 | 9 | 32 | 0.0 | 4.8 | 0.00 | 1.63 | 0.28 | 96 | 1005.2 |
| 20260507070046 | 9 | 0 | 0.0 | 4.8 | 0.00 | 1.63 | 0.28 | 96 | 1005.3 |
| 20260507064545 | 10 | 304 | 1.6 | 8.0 | 0.00 | 1.63 | 0.28 | 96 | 1004.8 |
| 20260507063045 | 10 | 0 | 1.6 | 4.8 | 0.00 | 1.63 | 0.28 | 97 | 1004.8 |
| 20260507061555 | 10 | 0 | 0.0 | 0.0 | 0.00 | 1.63 | 0.28 | 97 | 1004.6 |